Fayetteville, AR

6:49 AM CDT on July 25, 2017 (GMT -0500)
Drake

Weather History for KFYV - February, 2013

Change the Weather History Date:

Wednesday, February 20, 2013

  Actual Average Record
Temperature  
Mean Temperature 30 °F 41 °F  
Max Temperature 34 °F 53 °F 77 °F (1996)
Min Temperature 25 °F 30 °F 15 °F (1978)
Degree Days  
Heating Degree Days 35 24  
Month to date heating degree days 493 527  
Since 1 July heating degree days 2826 3121  
Moisture  
Dew Point 27 °F    
Average Humidity 80    
Maximum Humidity 100    
Minimum Humidity 59    
Precipitation  
Precipitation 0.30 in 0.10 in 3.07 in (1997)
Month to date precipitation 1.97 1.92  
Year to date precipitation 5.00 4.76  
Sea Level Pressure  
Sea Level Pressure 30.21 in    
Wind  
Wind Speed 4 mph (ENE)    
Max Wind Speed 13 mph    
Max Gust Speed 16 mph    
Visibility 7 miles    
Events Fog , Rain , Snow    
T = Trace of Precipitation, MM = Missing Value Source: NWS Daily Summary

Daily Weather History Graph

Daily Weather History Graph

Search for Another Location

Airport or City:

Trip Planner

Search our weather history database for the weather conditions in past years. The results will help you decide how hot, cold, wet, or windy it might be!

Date:

Astronomy

Feb. 20, 2013 Rise Set
Actual Time 6:57 AM CST 6:03 PM CST
Civil Twilight 6:31 AM CST 6:29 PM CST
Nautical Twilight 6:02 AM CST 6:59 PM CST
Astronomical Twilight 5:32 AM CST 7:28 PM CST
Moon 1:30 PM CST (2/20) 3:13 AM CST (2/20)
Length of Visible Light 11h 57m
Length of Day
11h 05m
Waxing Gibbous, 76% of the Moon is Illuminated
Feb 20
Waxing Gibbous
Feb 25
Full
Mar 4
Last Quarter
Mar 11
New
Mar 19
First Quarter

Hourly Weather History & Observations

Time (CST) Temp. Windchill Dew Point Humidity Pressure Visibility Wind Dir Wind Speed Gust Speed Precip Events Conditions
12:53 AM 26.1 °F - 21.9 °F 84% 30.30 in 10.0 mi Calm Calm - N/A   Clear
1:53 AM 27.0 °F - 23.0 °F 85% 30.30 in 10.0 mi Calm Calm - N/A   Clear
2:53 AM 27.0 °F - 23.0 °F 85% 30.27 in 10.0 mi Calm Calm - N/A   Clear
3:53 AM 28.9 °F - 24.1 °F 82% 30.27 in 10.0 mi Calm Calm - N/A   Clear
4:53 AM 30.0 °F 24.1 °F 19.0 °F 64% 30.27 in 10.0 mi NE 5.8 mph - N/A   Clear
5:53 AM 30.0 °F 26.5 °F 19.0 °F 64% 30.29 in 10.0 mi NE 3.5 mph - N/A   Overcast
6:53 AM 30.9 °F - 19.9 °F 64% 30.29 in 10.0 mi Calm Calm - N/A   Overcast
7:53 AM 30.9 °F 27.5 °F 19.0 °F 61% 30.30 in 10.0 mi ENE 3.5 mph - N/A   Overcast
8:53 AM 32.0 °F - 19.0 °F 59% 30.30 in 10.0 mi Calm Calm - N/A   Overcast
9:53 AM 32.0 °F 28.7 °F 19.9 °F 61% 30.29 in 7.0 mi NE 3.5 mph - 0.00 in Snow Light Snow
9:58 AM 32.0 °F - 19.4 °F 60% 30.26 in 2.5 mi Calm Calm - 0.00 in Snow Light Snow
10:05 AM 30.2 °F - 21.2 °F 69% 30.27 in 0.8 mi Calm Calm - 0.00 in Snow Light Snow
10:22 AM 28.4 °F - 26.6 °F 93% 30.27 in 0.5 mi Calm Calm - N/A Fog , Snow Snow
10:44 AM 28.4 °F - 26.6 °F 93% 30.29 in 0.2 mi Calm Calm - 0.06 in Fog , Snow Snow
10:53 AM 28.0 °F - 27.0 °F 96% 30.33 in 0.2 mi Calm Calm - 0.07 in Fog , Snow Snow
11:53 AM 30.0 °F 22.4 °F 28.0 °F 92% 30.27 in 0.8 mi NE 8.1 mph - 0.13 in Snow Light Snow
12:03 PM 30.2 °F 24.3 °F 28.4 °F 93% 30.24 in 1.2 mi NE 5.8 mph - 0.00 in Snow Light Snow
12:35 PM 30.2 °F 26.7 °F 28.4 °F 93% 30.22 in 2.5 mi NE 3.5 mph - 0.00 in Snow Light Snow
12:53 PM 30.9 °F 26.2 °F 28.0 °F 89% 30.25 in 3.0 mi NE 4.6 mph - 0.00 in Snow Light Snow
1:53 PM 32.0 °F 26.4 °F 28.0 °F 85% 30.19 in 10.0 mi East 5.8 mph - 0.00 in   Overcast
2:53 PM 33.8 °F 27.7 °F 33.8 °F 100% 30.14 in 10.0 mi ENE 6.9 mph - N/A   Overcast
3:53 PM 34.0 °F 28.8 °F 34.0 °F 100% 30.16 in 7.0 mi ENE 5.8 mph - 0.00 in   Overcast
4:53 PM 34.0 °F 28.0 °F 34.0 °F 100% 30.14 in 7.0 mi ENE 6.9 mph - 0.01 in   Overcast
5:53 PM 33.1 °F 26.1 °F 33.1 °F 100% 30.12 in 10.0 mi ENE 8.1 mph - N/A   Overcast
6:53 PM 33.1 °F 26.9 °F 33.1 °F 100% 30.10 in 10.0 mi ENE 6.9 mph - N/A   Overcast
7:53 PM 33.1 °F 28.7 °F 33.1 °F 100% 30.10 in 6.0 mi ENE 4.6 mph - 0.01 in Rain Light Rain
8:53 PM 32.0 °F 25.6 °F 32.0 °F 100% 30.10 in 7.0 mi ENE 6.9 mph - 0.03 in Rain Light Rain
9:53 PM 33.1 °F 27.7 °F 33.1 °F 100% 30.09 in 8.0 mi ESE 5.8 mph - 0.04 in Rain Light Rain
10:03 PM 33.8 °F 27.7 °F 33.8 °F 100% 30.05 in 10.0 mi East 6.9 mph - 0.01 in Rain Light Rain
10:53 PM 32.0 °F 25.6 °F 32.0 °F 100% 30.08 in 10.0 mi East 6.9 mph - 0.01 in   Overcast
11:53 PM 32.0 °F 25.6 °F 32.0 °F 100% 30.09 in 10.0 mi East 6.9 mph - N/A   Overcast